Tracking 19245 objects as of 21-Aug-2018
HD Live streaming from Space Station
objects crossing your sky now

FENGYUN 1C DEB

Track FENGYUN 1C DEB now!
10-day predictions


NORAD ID: 29895
Int'l Code: 1999-025GR
Perigee: 676.8 km
Apogee: 1,219.1 km
Inclination: 99.9 °
Period: 103.9 minutes
Semi major axis: 7318 km
RCS: 0.0261 m2 (small)
Launch date: May 10, 1999
Source: People's Republic of China (PRC)
Launch site: Taiyaun Space Center, China (TSC)

Note: This is SATELLITE DEBRIS
aabbcc
Your satellite tracking list
Your tracking list is empty




NASA's NSSDC Master Catalog

Two Line Element Set (TLE):
1 29895U 99025GR  18232.48731660 +.00000537 +00000-0 +29690-3 0  9993
2 29895 099.8734 117.6695 0370464 239.2531 249.8819 13.86523742583513
Source of the keplerian elements: AFSPC